Back to Previous

Regional Weather Roundup

379 
ASUS44 KLZK 251605
RWRLZK

WEATHER ROUNDUP FOR ARKANSAS
NATIONAL WEATHER SERVICE LITTLE ROCK AR
1000 AM CST SUN JAN 25 2015

NOTE: "FAIR" INDICATES FEW OR NO CLOUDS BELOW 12,000 FEET WITH NO
SIGNIFICANT WEATHER AND/OR OBSTRUCTIONS TO VISIBILITY.

ARZ001-003-010-029-251700-
NORTHWEST ARKANSAS
  
CITY           SKY/WX    TMP DP  RH WIND       PRES   REMARKS
FAYETTEVILLE   CLOUDY    46  35  65 W14G26    29.79R                  
FORT SMITH     MOSUNNY   55  35  47 W17       29.82S                  
HARRISON       CLOUDY    49  38  65 W16G31    29.70S                  
BENTONVILLE    CLOUDY    46  34  61 NW18G25   29.78R                  
ROGERS         LGT RAIN  45  36  70 W16G26    29.76R                  
SILOAM SPGS    CLOUDY    46  30  53 NW23G32   29.81R                  
HIGHFILL       LGT RAIN  46  36  68 NW18G29   29.77R                  
SPRINGDALE     CLOUDY    46  36  66 NW12G23   29.79R                  
$$

ARZ004-005-016-251700-
NORTH CENTRAL ARKANSAS
  
CITY           SKY/WX    TMP DP  RH WIND       PRES   REMARKS
BATESVILLE     PTSUNNY   54  39  58 W9        29.70S                  
FLIPPIN        CLOUDY    48  37  66 W14       29.69R                  
MTN HOME       CLOUDY    48  40  73 NW8G16    29.68S                  
$$

ARZ040-041-251700-
WEST CENTRAL ARKANSAS
  
CITY           SKY/WX    TMP DP  RH WIND       PRES   REMARKS
MENA           SUNNY     55  36  47 NW16G26   29.83S                  
MOUNT IDA      SUNNY     56  36  47 NW14G25   29.78S                  
$$

ARZ009-017-025-026-028-251700-
NORTHEAST ARKANSAS
  
CITY           SKY/WX    TMP DP  RH WIND       PRES   REMARKS
CORNING        LGT RAIN  41  41 100 S5        29.66F                  
JONESBORO      LGT RAIN  42  40  92 SW12      29.69S                  
NEWPORT        CLOUDY    46  42  86 SW8       29.71S                  
BLYTHEVILLE    LGT RAIN  44  39  82 SW16      29.70S                  
$$

ARZ022-023-033-042-044-251700-
CENTRAL ARKANSAS
  
CITY           SKY/WX    TMP DP  RH WIND       PRES   REMARKS
LITTLE ROCK    MOSUNNY   51  36  56 W12       29.77S                  
N LITTLE ROCK  MOSUNNY   52  40  63 W10G16    29.77S                  
JACKSONVILLE   MOSUNNY   54  38  56 W13       29.75F                  
SEARCY         PTSUNNY   52  39  61 W9G17     29.74S                  
HOT SPRINGS    SUNNY     53  38  56 VRB6      29.79F                  
RUSSELLVILLE   SUNNY     55  38  52 W16G22    29.75F                  
CLINTON        PTSUNNY   54  41  62 SW9       29.73F                  
$$

ARZ036-251700-
EAST ARKANSAS
  
CITY           SKY/WX    TMP DP  RH WIND       PRES   REMARKS
WEST MEMPHIS   LGT RAIN  44  38  79 SW8       29.73S                  
$$

ARZ050-053-066-070-073-251700-
SOUTHWEST ARKANSAS
  
CITY           SKY/WX    TMP DP  RH WIND       PRES   REMARKS
ARKADELPHIA    FAIR      51  40  66 SW8       29.83S                  
CAMDEN         SUNNY     54  36  50 MISG      29.85S                  
TEXARKANA      SUNNY     55  38  52 W13       29.88S                  
EL DORADO      SUNNY     51  38  60 W10       29.87R                  
DE QUEEN       SUNNY     50  39  66 W10       29.86F                  
$$

ARZ056-057-069-251700-
SOUTHEAST ARKANSAS
  
CITY           SKY/WX    TMP DP  RH WIND       PRES   REMARKS
PINE BLUFF     CLOUDY    48  36  63 SW14G21   29.79S                  
STUTTGART      CLOUDY    46  39  76 SW17      29.77R                  
MONTICELLO     PTSUNNY   50  37  61 W15G24    29.81S                  

$$




USA.gov is the U.S. government's official web portal to all federal, state and local government web resources and services.